Weather History for Fort Wayne, IN

Change the Weather History Date:

Monday, February 18, 2013

  Actual Average Record
Temperature  
Mean Temperature 37 °F 29 °F  
Max Temperature 52 °F 37 °F 61 °F (1961)
Min Temperature 21 °F 21 °F -13 °F (1936)
Degree Days  
Heating Degree Days 28 36  
Month to date heating degree days 684 684  
Since 1 July heating degree days 4031 4255  
Cooling Degree Days 0 0  
Month to date cooling degree days 0 0  
Year to date cooling degree days 0 0  
Moisture  
Dew Point 27 °F    
Average Humidity 63    
Maximum Humidity 71    
Minimum Humidity 54    
Precipitation  
Precipitation 0.06 in 0.08 in 0.68 in (1938)
Month to date precipitation 0.44 1.28  
Year to date precipitation 3.87 3.54  
Snow  
Snow 0.00 in 0.20 in 5.80 in (1928)
Month to date snowfall 4.5 5.3  
Since 1 July snowfall 16.7 26.0  
Snow Depth -    
Sea Level Pressure  
Sea Level Pressure 29.90 in    
Wind  
Wind Speed 15 mph (South)    
Max Wind Speed 33 mph    
Max Gust Speed 43 mph    
Visibility 10 miles    
Events Rain    
T = Trace of Precipitation, MM = Missing Value Source: NWS Daily Summary

Daily Weather History Graph

Daily Weather History Graph

Search for Another Location

Airport:

Trip Planner

Search our weather history database for the weather conditions in past years. The results will help you decide how hot, cold, wet, or windy it might be!

Date:

Astronomy

Feb. 18, 2013 Rise Set
Actual Time 7:30 AM EST 6:19 PM EST
Civil Twilight 7:02 AM EST 6:47 PM EST
Nautical Twilight 6:30 AM EST 7:19 PM EST
Astronomical Twilight 5:58 AM EST 7:51 PM EST
Moon 12:03 PM EST (2/18) 2:10 AM EST (2/18)
Length of Visible Light 11h 44m
Length of Day
10h 48m
First Quarter, 58% of the Moon is Illuminated
Feb 18
First Quarter
Feb 25
Full
Mar 4
Last Quarter
Mar 11
New
Mar 19
First Quarter

Hourly Weather History & Observations

Time (EST) Temp. Windchill Dew Point Humidity Pressure Visibility Wind Dir Wind Speed Gust Speed Precip Events Conditions
12:54 AM 21.9 °F 13.4 °F 14.0 °F 72% 30.20 in 10.0 mi SSE 6.9 mph - N/A   Mostly Cloudy
1:54 AM 21.9 °F 12.5 °F 14.0 °F 72% 30.19 in 10.0 mi SE 8.1 mph - N/A   Scattered Clouds
2:54 AM 21.9 °F 11.0 °F 14.0 °F 72% 30.17 in 10.0 mi SE 10.4 mph - N/A   Scattered Clouds
3:54 AM 21.9 °F 11.7 °F 12.9 °F 68% 30.14 in 10.0 mi SE 9.2 mph - N/A   Scattered Clouds
4:54 AM 23.0 °F 13.1 °F 12.9 °F 65% 30.11 in 10.0 mi SE 9.2 mph - N/A   Scattered Clouds
5:54 AM 23.0 °F 11.7 °F 14.0 °F 68% 30.09 in 10.0 mi SE 11.5 mph - N/A   Partly Cloudy
6:54 AM 25.0 °F 13.6 °F 14.0 °F 63% 30.04 in 10.0 mi SE 12.7 mph - N/A   Mostly Cloudy
7:54 AM 26.1 °F 16.2 °F 15.1 °F 63% 30.02 in 10.0 mi SSE 10.4 mph - N/A   Mostly Cloudy
8:54 AM 30.0 °F 20.0 °F 18.0 °F 61% 30.01 in 10.0 mi SSE 12.7 mph - N/A   Mostly Cloudy
9:54 AM 34.0 °F 23.4 °F 21.0 °F 59% 29.98 in 10.0 mi SSE 17.3 mph - N/A   Mostly Cloudy
10:54 AM 39.9 °F 31.1 °F 25.0 °F 55% 29.96 in 10.0 mi South 17.3 mph - N/A   Mostly Cloudy
11:54 AM 45.0 °F 38.2 °F 30.0 °F 56% 29.93 in 10.0 mi South 15.0 mph - N/A   Mostly Cloudy
12:54 PM 48.0 °F - 33.1 °F 56% 29.89 in 10.0 mi SSW 13.8 mph 24.2 mph N/A   Mostly Cloudy
1:54 PM 51.1 °F - 35.1 °F 54% 29.85 in 10.0 mi SSW 23.0 mph 28.8 mph N/A   Mostly Cloudy
2:54 PM 52.0 °F - 37.0 °F 57% 29.82 in 10.0 mi South 23.0 mph 32.2 mph N/A   Mostly Cloudy
3:54 PM 51.1 °F - 37.9 °F 61% 29.81 in 10.0 mi South 18.4 mph 23.0 mph N/A   Mostly Cloudy
4:54 PM 51.1 °F - 39.0 °F 63% 29.76 in 10.0 mi South 15.0 mph - 0.01 in   Mostly Cloudy
5:54 PM 50.0 °F - 39.2 °F 66% 29.73 in 10.0 mi South 16.1 mph - N/A   Overcast
6:54 PM 48.0 °F - 37.0 °F 66% 29.75 in 10.0 mi South 13.8 mph - 0.00 in   Overcast
7:54 PM 48.9 °F - 37.0 °F 64% 29.72 in 10.0 mi SSW 23.0 mph 33.4 mph 0.00 in Rain Light Rain
8:54 PM 46.0 °F 39.6 °F 37.9 °F 73% 29.68 in 10.0 mi South 15.0 mph - 0.00 in   Overcast
9:54 PM 46.0 °F 39.6 °F 37.0 °F 71% 29.66 in 10.0 mi South 15.0 mph - 0.00 in   Overcast
10:54 PM 46.0 °F 37.0 °F 41.0 °F 83% 29.62 in 8.0 mi South 27.6 mph 38.0 mph 0.03 in Rain Light Rain
11:25 PM 44.6 °F 34.7 °F 39.2 °F 81% 29.59 in 10.0 mi South 29.9 mph 42.6 mph 0.02 in Rain Light Rain
11:54 PM 44.1 °F 34.6 °F 39.9 °F 85% 29.58 in 10.0 mi South 26.5 mph 40.3 mph 0.02 in Rain Light Rain